Weather History for Williams, AZ

Change the Weather History Date:

Tuesday, June 10, 2014

  Actual Average (KFLG) Record (KFLG)
Temperature  
Mean Temperature 67 °F 58 °F  
Max Temperature 84 °F 77 °F 87 °F (1910)
Min Temperature 50 °F 40 °F 28 °F (1968)
Degree Days  
Heating Degree Days 0 7  
Month to date heating degree days 83  
Since 1 July heating degree days 6856  
Cooling Degree Days 2 0  
Month to date cooling degree days 0  
Year to date cooling degree days 0  
Growing Degree Days 17 (Base 50)    
Moisture  
Dew Point 18 °F    
Average Humidity 18    
Maximum Humidity 28    
Minimum Humidity 9    
Precipitation  
Precipitation 0.00 in 0.01 in 1.47 in (1957)
Month to date precipitation 0.11  
Year to date precipitation 8.22  
Snow  
Snow 0.00 in 0.00 in T in (1949)
Month to date snowfall 0.1  
Since 1 July snowfall 101.8  
Snow Depth -    
Sea Level Pressure  
Sea Level Pressure 30.21 in    
Wind  
Wind Speed 9 mph (SSE)    
Max Wind Speed 20 mph    
Max Gust Speed 30 mph    
Visibility 10 miles    
Events      
T = Trace of Precipitation, MM = Missing Value Source: NWS Daily Summary

Daily Weather History Graph

Daily Weather History Graph

Search for Another Location

Airport:

Trip Planner

Search our weather history database for the weather conditions in past years. The results will help you decide how hot, cold, wet, or windy it might be!

Date:

Astronomy

Jun. 10, 2014 Rise Set
Actual Time 5:13 AM MST 7:43 PM MST
Civil Twilight 4:43 AM MST 8:12 PM MST
Nautical Twilight 4:07 AM MST 8:49 PM MST
Astronomical Twilight 3:26 AM MST 9:30 PM MST
Moon 5:17 PM MST (6/10) 3:15 AM MST (6/10)
Length of Visible Light 15h 29m
Length of Day
14h 29m
Waxing Gibbous, 93% of the Moon is Illuminated
Jun 10
Waxing Gibbous
Jun 12
Full
Jun 19
Last Quarter
Jun 27
New
Jul 5
First Quarter

Hourly Weather History & Observations

Time (MST) Temp. Dew Point Humidity Pressure Visibility Wind Dir Wind Speed Gust Speed Precip Events Conditions
12:15 AM 59.0 °F 14.0 °F 17% 30.22 in 10.0 mi SE 6.9 mph - N/A   Clear
12:35 AM 59.0 °F 15.8 °F 19% 30.22 in 10.0 mi SSE 8.1 mph - N/A   Clear
12:55 AM 57.2 °F 15.8 °F 20% 30.21 in 10.0 mi SSE 6.9 mph - N/A   Clear
1:15 AM 57.2 °F 15.8 °F 20% 30.21 in 10.0 mi SSE 9.2 mph - N/A   Clear
1:55 AM 55.4 °F 15.8 °F 21% 30.21 in 10.0 mi SSE 9.2 mph - N/A   Clear
2:15 AM 53.6 °F 15.8 °F 22% 30.21 in 10.0 mi SE 9.2 mph - N/A   Clear
2:55 AM 53.6 °F 15.8 °F 22% 30.20 in 10.0 mi SE 10.4 mph - N/A   Clear
3:15 AM 53.6 °F 15.8 °F 22% 30.20 in 10.0 mi SE 9.2 mph - N/A   Clear
3:35 AM 51.8 °F 15.8 °F 24% 30.20 in 10.0 mi SE 10.4 mph - N/A   Clear
3:55 AM 50.0 °F 17.6 °F 28% 30.20 in 10.0 mi SE 9.2 mph - N/A   Clear
4:15 AM 50.0 °F 17.6 °F 28% 30.20 in 10.0 mi SSE 10.4 mph - N/A   Clear
4:35 AM 51.8 °F 17.6 °F 26% 30.20 in 10.0 mi SE 10.4 mph - N/A   Clear
4:55 AM 53.6 °F 15.8 °F 22% 30.20 in 10.0 mi SE 8.1 mph - N/A   Clear
5:15 AM 50.0 °F 17.6 °F 28% 30.21 in 10.0 mi SSE 9.2 mph - N/A   Clear
5:35 AM 50.0 °F 17.6 °F 28% 30.21 in 10.0 mi SSE 9.2 mph - N/A   Clear
5:55 AM 53.6 °F 15.8 °F 22% 30.21 in 10.0 mi SE 8.1 mph - N/A   Clear
6:15 AM 53.6 °F 17.6 °F 24% 30.21 in 10.0 mi SE 10.4 mph - N/A   Clear
7:15 AM 64.4 °F 19.4 °F 18% 30.21 in 10.0 mi SE 6.9 mph - N/A   Clear
7:55 AM 71.6 °F 21.2 °F 15% 30.22 in 10.0 mi SSE 4.6 mph - N/A   Clear
8:15 AM 75.2 °F 19.4 °F 12% 30.22 in 10.0 mi SE 3.5 mph - N/A   Clear
8:35 AM 77.0 °F 19.4 °F 12% 30.22 in 10.0 mi ESE 3.5 mph - N/A   Clear
9:15 AM 80.6 °F 17.6 °F 10% 30.22 in 10.0 mi South 10.4 mph - N/A   Clear
10:55 AM 82.4 °F 19.4 °F 10% 30.22 in 10.0 mi South 16.1 mph - N/A   Clear
12:35 PM 82.4 °F 17.6 °F 9% 30.21 in 10.0 mi South 19.6 mph - N/A   Clear
12:55 PM 82.4 °F 21.2 °F 10% 30.20 in 10.0 mi SSE 12.7 mph 21.9 mph N/A   Clear
1:15 PM 82.4 °F 21.2 °F 10% 30.20 in 10.0 mi West 8.1 mph 19.6 mph N/A   Clear
1:55 PM 84.2 °F 19.4 °F 9% 30.19 in 10.0 mi SSE 11.5 mph 24.2 mph N/A   Clear
2:15 PM 84.2 °F 19.4 °F 9% 30.18 in 10.0 mi SSW 11.5 mph 29.9 mph N/A   Clear
2:35 PM 84.2 °F 19.4 °F 9% 30.17 in 10.0 mi SSW 8.1 mph 20.7 mph N/A   Clear
11:35 PM 57.2 °F 19.4 °F 23% 30.17 in 10.0 mi South 4.6 mph - N/A   Clear